User: anonymous   Login
Location: Columbia
(38.9520°N, 92.3340°W)
Time: 03:50:36
(UTC-05:00)
Language:

SL-08 RB Rocket - Orbit

View from above orbital plane
View from above orbital plane
View from above satellite
View from above satellite

Ground track
Ground track

The orbit data is extracted from the following two-line orbital elements,

1 26387U 00033D   16268.78922633  .00000151  00000-0  34529-4 0  9999
2 26387  98.0081 333.3398 0027911 100.1194  12.6309 14.68192177868933
Epoch (UTC): 24 September 2016 18:56:29
Eccentricity: 0.0027911
inclination: 98.0081°
perigee height: 647 km
apogee height: 686 km
right ascension of ascending node: 333.3398°
argument of perigee: 100.1194°
revolutions per day: 14.68192177
mean anomaly at epoch: 12.6309°
orbit number at epoch: 86893

The dashed part of the orbit path shows where the satellite is in the earth's shadow,  

DLR